This demonstration page uses our WeatherBlox Daily Observations layout. Learn more.

Left ArrowRight Arrow

Hourly Observations for July 23, 2018

Temp ( °F °C ) Dew Point ( °F °C ) Humidity (%) Winds ( mph kmh ) Pressure ( in mb ) Visibility ( mi km ) Precip ( " mm )
12:53 am 00:53 Clear 73 22.8 67 19.4 81 81 E 6 9 30.05 1018 10 16 0.00 0.00
1:53 am 01:53 Clear 74 23.3 65 18.3 74 74 E 3 6 30.05 1018 10 16 0.00 0.00
2:37 am 02:37 Mostly Cloudy with Nearby Thunderstorms 72 22.2 68 20 87 87 NNW 9 15 30.06 1018 10 16 0.00 0.03
2:46 am 02:46 Cloudy with Thunderstorms 72 22.2 67 19.4 84 84 N 9 15 30.06 1018 9 14 0.01 0.25
2:53 am 02:53 Cloudy with Thunderstorms 71 21.7 68 20 90 90 Calm 30.09 1019 7 11 0.02 0.51
3:06 am 03:06 Cloudy with Light Rain 72 22 68 20 88 88 SSE 3 6 30.06 1018 6 10 0.00 0.00
3:16 am 03:16 Mostly Cloudy with Thunderstorms 72 22 70 21 94 94 S 3 6 30.03 1017 6 10 0.00 0.00
3:31 am 03:31 Mostly Cloudy with Rain 71 21.7 69 20.6 94 94 SSE 10 17 30.03 1017 5 8 0.11 2.79
3:53 am 03:53 Mostly Cloudy with Light Rain 70 21.1 68 20 93 93 S 6 9 30.04 1017 8 13 0.15 3.81
4:53 am 04:53 Partly Cloudy 69 20.6 67 19.4 93 93 NNE 3 6 30.04 1017 7 11 0.00 0.03
5:53 am 05:53 Mostly Cloudy with Mist and Fog 68 20 67 19.4 96 96 Calm 30.08 1019 4 6 0.00 0.00
6:53 am 06:53 Cloudy with Mist and Fog 69 20.6 68 20 96 96 N 3 6 30.11 1020 3 5 0.00 0.00
7:53 am 07:53 Cloudy with Mist and Fog 70 21.1 68 20 93 93 N 7 11 30.12 1020 4 6 0.00 0.00
8:18 am 08:18 Cloudy with Mist and Fog 72 22 70 21 94 94 N 6 9 30.09 1019 5 8 0.00 0.00
8:32 am 08:32 Cloudy 72 22 70 21 94 94 W 3 6 30.09 1019 9 14 0.00 0.00
8:53 am 08:53 Cloudy 73 22.8 69 20.6 87 87 W 6 9 30.11 1020 10 16 0.00 0.00
9:44 am 09:44 Cloudy 75 23.9 69 20.6 82 82 NW 9 15 30.09 1019 10 16 0.00 0.00
9:53 am 09:53 Mostly Cloudy 75 23.9 69 20.6 82 82 N 8 13 30.12 1020 10 16 0.00 0.00
10:24 am 10:24 Cloudy 74 23.3 69 20.6 85 85 NW 12 19 30.09 1019 10 16 0.00 0.00
10:53 am 10:53 Cloudy 75 23.9 69 20.6 82 82 NNW 13 20 30.12 1020 10 16 0.00 0.00
11:53 am 11:53 Cloudy 75 23.9 70 21.1 84 84 N 13 20 30.13 1020 10 16 0.00 0.00
12:53 pm 12:53 Cloudy 76 24.4 70 21.1 82 82 N 17 28 30.13 1020 10 16 0.00 0.00
1:43 pm 13:43 Cloudy 77 25 70 21.1 79 79 N 13 20 30.06 1018 10 16 0.00 0.00
1:53 pm 13:53 Cloudy 77 25 69 20.6 77 77 N 15 24 30.13 1020 10 16 0.00 0.00
2:30 pm 14:30 Mostly Cloudy 80 26.7 70 21.1 71 71 NNE 12 19 30.06 1018 10 16 0.00 0.00
2:53 pm 14:53 Partly Cloudy 81 27.2 70 21.1 69 69 NE 12 19 30.12 1020 10 16 0.00 0.00
3:53 pm 15:53 Partly Cloudy 83 28.3 69 20.6 63 63 NNE 10 17 30.11 1020 10 16 0.00 0.00
4:53 pm 16:53 Mostly Sunny 84 28.9 66 18.9 55 55 NNE 14 22 30.10 1019 10 16 0.00 0.00
5:53 pm 17:53 Mostly Sunny 83 28.3 65 18.3 55 55 NE 13 20 30.11 1020 10 16 0.00 0.00
6:53 pm 18:53 Sunny 81 27.2 64 17.8 57 57 NE 14 22 30.11 1020 10 16 0.00 0.00
7:53 pm 19:53 Sunny 78 25.6 62 16.7 58 58 NNE 7 11 30.12 1020 10 16 0.00 0.00
8:53 pm 20:53 Sunny 71 21.7 63 17.2 76 76 NNE 5 7 30.13 1020 10 16 0.00 0.00
9:53 pm 21:53 Clear 67 19.4 62 16.7 84 84 NNE 6 9 30.14 1021 10 16 0.00 0.00
10:53 pm 22:53 Clear 67 19.4 61 16.1 81 81 N 5 7 30.16 1021 10 16 0.00 0.00
11:53 pm 23:53 Clear 66 18.9 60 15.6 81 81 Calm 30.16 1021 10 16 0.00 0.00

Powered by AerisWeather